This is the latest recevied weather packets stored in our database for station/object N4AN. If no packets are shown the sender has not sent any weather packets the latest 10 day(s).
| Time | Temp. | Humidity | Pressure | Rain* | Wind** | Luminosity | Snow |
|---|---|---|---|---|---|---|---|
| 1787950649 | 32.22° C | 71% | 1010.3 hPa | 0 mm | - | - | - |
| 1787950349 | 32.22° C | 71% | 1010.4 hPa | 0 mm | - | - | - |
| 1787950049 | 32.22° C | 70% | 1010.2 hPa | 0 mm | - | - | - |
| 1787949748 | 32.22° C | 70% | 1010.1 hPa | 0 mm | - | - | - |
| 1787949448 | 32.78° C | 69% | 1010.2 hPa | 0 mm | - | - | - |
| 1787949148 | 33.33° C | 67% | 1010.4 hPa | 0 mm | - | - | - |
| 1787948846 | 33.89° C | 66% | 1010.5 hPa | 0 mm | - | - | - |
| 1787948545 | 34.44° C | 65% | 1010.5 hPa | 0 mm | - | - | - |
| 1787948243 | 34.44° C | 66% | 1010.6 hPa | 0 mm | - | - | - |
| 1787947943 | 34.44° C | 65% | 1010.7 hPa | 0 mm | - | - | - |
| 1787947643 | 34.44° C | 64% | 1010.5 hPa | 0 mm | - | - | - |
| 1787947341 | 34.44° C | 64% | 1010.5 hPa | 0 mm | - | - | - |
| 1787947040 | 34.44° C | 66% | 1010.4 hPa | 0 mm | - | - | - |
| 1787946740 | 32.78° C | 69% | 1010.4 hPa | 0 mm | - | - | - |
| 1787946439 | 32.78° C | 68% | 1010.5 hPa | 0 mm | - | - | - |
| 1787946138 | 33.33° C | 68% | 1010.5 hPa | 0 mm | - | - | - |
| 1787945837 | 33.33° C | 67% | 1010.5 hPa | 0 mm | - | - | - |
| 1787945536 | 33.89° C | 66% | 1010.7 hPa | 0 mm | - | - | - |
| 1787945236 | 34.44° C | 64% | 1010.7 hPa | 0 mm | - | - | - |
| 1787944936 | 35° C | 62% | 1010.8 hPa | 0 mm | - | - | - |
| 1787944636 | 35.56° C | 61% | 1010.8 hPa | 0 mm | - | - | - |
| 1787944335 | 36.11° C | 61% | 1010.7 hPa | 0 mm | - | - | - |
| 1787944035 | 35.56° C | 62% | 1010.7 hPa | 0 mm | - | - | - |
| 1787943735 | 36.11° C | 61% | 1010.8 hPa | 0 mm | - | - | - |
| 1787943434 | 36.11° C | 62% | 1010.8 hPa | 0 mm | - | - | - |
* Rain latest hour (hover to see other rain measurements)
** Current wind speed in m/s (hover to see current wind gust speed)